{"data":{"norad_id":57950,"epoch":"2026-05-25T01:20:55.019040Z","epoch_age_seconds":66282,"freshness":"FRESH","line1":"1 57950U 23148R   26145.05619235  .00001162  00000+0  51354-4 0  9994","line2":"2 57950  53.1614  29.6002 0001130 117.0106 243.1010 15.30194744150115","mean_motion":15.30194744,"eccentricity":0.000113,"inclination_deg":53.1614,"raan_deg":29.6002,"arg_perigee_deg":117.0106,"mean_anomaly_deg":243.101,"bstar":5.1354e-5,"rev_number":15011,"period_min":94.105668944841,"perigee_km":474.45633237563,"apogee_km":476.00519349006,"semimajor_km":6853.3677629328,"source":"CELESTRAK","updated_at":"2026-05-25T13:38:18.463198Z"}}